Home > Weather > Schwerin > Past weeks

Flag for Germany Weather for the Past 2 Weeks in Schwerin, Mecklenburg-Western Pomerania, Germany

Now
39 °F

Sprinkles. Passing clouds.


Feels Like: 34 °F
Forecast: 34 / 41 °F
Wind: 7 mph from South

Location: Laage

Current Time: Feb 11, 2016 at 1:41:11 AM

Latest Report: Feb 11, 2016 at 12:20 AM


Visibility: 4 mi

Pressure: 29.30 "Hg

Humidity: 93%

Dew point: 37 °F

Location of SchwerinLocation

Historic Weather in Schwerin — Graph

°F

Schwerin Temperature Yesterday

Maximum temperature yesterday: 46 °F (at 12:20 AM)
Minimum temperature yesterday: 36 °F (at 3:20 AM)
Average temperature yesterday: 39 °F

High & Low Weather Summary for the Past Weeks

 TemperatureHumidityPressure
High54 °F (Feb 7, 1:20 PM)100% (Jan 30, 5:59 PM)30.18 "Hg (Jan 30, 5:59 PM)
Low32 °F (Feb 5, 2:20 AM)57% (Feb 2, 4:20 PM)28.77 "Hg (Feb 10, 12:20 AM)
Average43 °F84%29.67 "Hg
* Reported Jan 26 11:20 PM — Feb 10 11:20 PM, Schwerin, Weather by CustomWeather, © 2016

Note: Actual official high and low records may vary slightly from our data, if they occured in-between our weather recording intervals... More about our weather records

Advertising

Schwerin Weather History for the Previous 24 Hours

 ConditionsComfort  
Time TempWeatherWind HumidityBarometerVisibility
11:20 PM
Wed, Feb 10
39 °FOvercast.7 mph87%29.30 "HgN/A
10:20 PM39 °FPassing clouds.5 mph87%29.27 "HgN/A
9:20 PM39 °FPassing clouds.5 mph87%29.30 "HgN/A
8:20 PM37 °FPassing clouds.5 mph93%29.27 "HgN/A
7:20 PM37 °FPassing clouds.5 mph93%29.27 "HgN/A
6:20 PM37 °FSprinkles. Partly cloudy.5 mph93%29.27 "HgN/A
5:20 PM39 °FPassing clouds.3 mph87%29.24 "HgN/A
4:20 PM39 °FPartly sunny.5 mph87%29.24 "HgN/A
3:20 PM39 °FSprinkles. Partly sunny.7 mph81%29.24 "HgN/A
2:20 PM41 °FPartly sunny.7 mph70%29.21 "HgN/A
1:20 PM41 °FPartly sunny.10 mph70%29.21 "HgN/A
12:20 PM39 °FPartly sunny.10 mph75%29.24 "HgN/A
11:20 AM39 °FPartly sunny.13 mph75%29.21 "HgN/A
10:20 AM39 °FBroken clouds.13 mph81%29.18 "HgN/A
9:20 AM37 °FBroken clouds.14 mph87%29.18 "HgN/A
8:58 AM37 °FBroken clouds.15 mph87%29.18 "HgN/A
8:20 AM37 °FPartly sunny.13 mph93%29.15 "HgN/A
7:20 AM37 °FPassing clouds.13 mph93%29.12 "HgN/A
6:20 AM37 °FPassing clouds.16 mph87%29.09 "HgN/A
5:20 AM37 °FPassing clouds.23 mph87%29.03 "HgN/A
4:20 AM37 °FPassing clouds.31 mph93%28.97 "HgN/A
3:20 AM36 °FLight rain. Passing clouds.29 mph93%28.88 "Hg4 mi
2:20 AM37 °FPassing clouds.13 mph93%28.82 "HgN/A
1:20 AM41 °FPassing clouds.20 mph76%28.80 "HgN/A
Weather by CustomWeather, © 2016

See weather overviewHow to use our weather pages